Content
SEND FEEDBACK

Daily
Averages
Monthly
Summary
China

CHONGQING, CHINA


Home > Asia > China
Elevation: 1151 feet     Latitude: 29 31N     Longitude: 106 29E

WEATHER
 
SELECT A DAY
Number of Records: 134,349;   Date Range: 1/29/00 - 10/19/14
 
SHARE

PRINT THIS DATA

[ ← Previous Day ]
WEATHER ALMANAC - AUGUST 1, 2013
[ Next Day → ]
[ °C ]   °F
Weather ElementAverageHighLow
Temperature81.8 °F91.4 °F (1:00 am)77 °F (1:00 pm)
Dewpoint70.4 °F73.4 °F (1:00 pm)66 °F (5:00 am)
Humidity67.6 %89 % (1:00 pm)46 % (5:00 am)
Barometer29.60 in29.68 in (11:00 am)29.44 in (2:00 am)
Wind Speed5.7 mph11.2 mph (1:00 pm)
Weather ElementAverage
Visibility6.5 mi
Wind DirectionSSW (204 °)

Weather ElementTotal
Precipitation---
Cooling Degree Days19.2 (Base 65)
Growing Degree Days34.2 (Base 50)
Averaged from 30 records on August 1, 2013
WEATHER CONDITIONS BREAKOUT
WIND DIRECTION BREAKOUT
WEATHER BY HOUR - AUGUST 1, 2013
[ °C ]   °F
Local TimeTemperatureDewpointHumidityBarometerVisibilityWind DirectionWind SpeedGust SpeedPrecipitationEventsConditions
1:00 AM91.4 °F69.8 °F49 %29.47 inENE (60°)6.7 mphClear
2:00 AM90.0 °F72.0 °F47 %29.44 in5.0 miSW (220°)2.2 mphHaze
2:00 AM91.4 °F69.8 °F49 %29.53 inSSE (150°)4.5 mphClear
3:00 AM89.6 °F68.0 °F49 %29.53 in6.2 miSouth (180°)8.9 mphThunderstormThunderstorm
4:00 AM82.4 °F68.0 °F62 %29.56 in6.2 miWSW (240°)4.5 mphThunderstormThunderstorm
5:00 AM84.0 °F66.0 °F46 %29.48 in12.0 miSW (220°)8.9 mphThunderstormLight Thunderstorm
5:00 AM82.4 °F68.0 °F62 %29.53 in6.2 miSouth (180°)4.5 mphThunderstormThunderstorm
6:00 AM82.4 °F68.0 °F62 %29.59 inWest (270°)8.9 mphClear
7:00 AM80.6 °F68.0 °F65 %29.59 inWSW (250°)6.7 mphClear
8:00 AM81.0 °F69.0 °F60 %29.54 in10.0 miNNW (340°)4.5 mphRainLight Rain
8:00 AM82.4 °F68.0 °F62 %29.59 inWNW (300°)6.7 mphClear
9:00 AM80.6 °F69.8 °F70 %29.62 inNW (310°)6.7 mphClear
10:00 AM84.2 °F69.8 °F62 %29.65 inNNW (340°)8.9 mphClear
11:00 AM83.0 °F69.0 °F55 %29.60 in9.0 miNNE (20°)4.5 mphClear
11:00 AM84.2 °F68.0 °F58 %29.68 inNorth (10°)6.7 mphClear
12:00 PM82.4 °F71.6 °F70 %29.65 in6.2 miWNW (300°)8.9 mphRainLight Rain Showers
1:00 PM77.0 °F73.4 °F89 %29.68 in6.2 miWest (270°)11.2 mphRainRain Showers
2:00 PM79.0 °F71.0 °F71 %29.61 in8.0 miNNW (340°)2.2 mphRainLight Rain
2:00 PM77.0 °F73.4 °F89 %29.68 in6.2 miWNW (290°)8.9 mphRainLight Rain Showers
3:00 PM77.0 °F73.4 °F89 %29.65 in5.0 miNNW (340°)6.7 mphRainLight Rain
4:00 PM80.6 °F71.6 °F74 %29.62 in5.0 miVariable2.2 mphScattered Clouds
5:00 PM81.0 °F69.0 °F60 %29.56 in12.0 miNNW (340°)2.2 mphClear
5:00 PM78.8 °F73.4 °F83 %29.62 in5.0 miSSE (160°)6.7 mphScattered Clouds
6:00 PM80.6 °F71.6 °F74 %29.62 in5.0 miSouth (190°)4.5 mphPartly Cloudy
7:00 PM80.6 °F73.4 °F79 %29.62 in5.0 miSouth (180°)6.7 mphPartly Cloudy
8:00 PM80.0 °F71.0 °F66 %29.56 in7.0 miWSW (250°)4.5 mphClear
8:00 PM78.8 °F73.4 °F83 %29.62 in4.3 miSE (140°)4.5 mphOvercast
9:00 PM78.8 °F71.6 °F78 %29.65 in5.0 miSE (130°)2.2 mphOvercast
10:00 PM77.0 °F71.6 °F83 %29.68 in5.0 miVariable2.2 mphPartly Cloudy
11:00 PM77.0 °F71.6 °F83 %29.68 in4.3 miEast (100°)2.2 mphScattered Clouds
Hourly data recorded from ZUCK, located miles away from Chongqing, China







STORIES FROM OUR PARTNERS